Regional Weather Roundup
Issued by NWS Newport/Morehead, NC

Current Version | Previous Version | Text Only | Print | Product List | Glossary Off
Versions: 1 2 3 4 5 6 7 8 9 10 11 12 13 14 15 16 17 18 19 20 21 22 23 24 25 26 27 28 29 30 31 32 33 34 35 36 37 38 39 40 41 42 43 44 45 46 47 48 49 50
000 ASUS42 KMHX 222324 RWRMHX WEATHER ROUNDUP FOR EASTERN NORTH CAROLINA NATIONAL WEATHER SERVICE NEWPORT/MOREHEAD CITY NC 700 PM EDT FRI MAY 22 2015 NOTE: "FAIR" INDICATES FEW OR NO CLOUDS BELOW 12,000 FEET WITH NO SIGNIFICANT WEATHER AND/OR OBSTRUCTIONS TO VISIBILITY NCZ015>017-031-032-045>047-102-103-230000- NORTH COAST CITY SKY/WX TMP DP RH WIND PRES REMARKS EDENTON SUNNY 71 48 43 W3 30.19R ELIZABETH CITY SUNNY 69 50 50 S6 30.18R KITTY HAWK CLEAR 66 45 46 E3 30.19R MANTEO SUNNY 66 44 45 E3 30.20R $$ NCZ045>047-081-094-103-104-230000- CENTRAL COAST CITY SKY/WX TMP DP RH WIND PRES REMARKS FRISCO SUNNY 65 40 39 E6 30.20S SWANQUARTER N/A 70 N/A N/A SE6 30.15S $$ NCZ095-097-098-100-101-230000- SOUTHERN COAST CITY SKY/WX TMP DP RH WIND PRES REMARKS BEAUFORT SUNNY 68 54 60 SE7 30.19R CEDAR ISLAND N/A 68 N/A N/A E5 30.24S JACKSONVILLE SUNNY 72 48 42 N7 30.18S PINEY ISLAND CLEAR N/A N/A N/A N6 30.19R WILMINGTON MOSUNNY 70 57 63 CALM 30.18S $$ NCZ011>013-027>030-043-044-078>080-089-090>093-098-230000- COASTAL PLAIN CITY SKY/WX TMP DP RH WIND PRES REMARKS AHOSKIE SUNNY 67 47 49 CALM 30.19R CLINTON SUNNY 72 50 45 CALM 30.21R ELIZABETHTOWN SUNNY 73 49 42 CALM 30.20R GOLDSBORO SUNNY 72 45 37 CALM 30.17R GREENVILLE SUNNY 72 45 37 CALM 30.21R HAVELOCK SUNNY 71 54 54 S7 30.20R KENANSVILLE SUNNY 70 47 43 N3 30.22R KINSTON SUNNY 72 45 37 CALM 30.20R NEW BERN SUNNY 71 47 42 N6 30.20R RICHLANDS SUNNY 70 52 52 CALM 30.20R ROCKY MOUNT SUNNY 73 42 32 NW6 30.20R WASHINGTON SUNNY N/A N/A N/A CALM 30.20R WHITEVILLE SUNNY 73 51 46 CALM 30.19R $$ AMZ130-135-150-152-154-156-158-170-250-252-270-ANZ085-086-088-633-658-670-230000- MARINE OBSERVATIONS STATION/POSITION TIME TEMP WIND PRES WAVE SWELL AIR SEA DIR/SP/G HT/PER HT/PER (UTC) (F) (DEG/KT/KT) (MB) (FT/S) (FT/S) CHESAPEAKE LIGHT 2300 63 190/ 12/ 12 1022.0 64 E VA BEACH 2250 61 61 210/ 8/ 8 1021.4 3/ 7 3/ 7 DUCK 2300 67 67 130/ 7/ 8 1021.4 2 E DUCK 2211 65 N/A 3/ 7 OREGON INLET 2300 64 68 50/ 6/ 9 1022.4 13E OREGON INLT 2300 62 N/A 3/ 8 HATTERAS CG 2300 67 73 90/ 3/ 7 1022.2 DIAMOND BUOY 2250 67 77 30/ 8/ 12 1022.5 3/ 8 3/ 8 CAPE LOOKOUT 2300 67 70/ 6/ 7 1022.2 BEAUFORT LAB 2300 69 75 150/ 5/ 9 1021.6 27 SE WRIGHTSVLE 2300 68 77 100/ 4/ 8 N/A 5 SE WRIGHTSVLE 2208 70 77 130/ 4/ 8 1022.1 225 S CAPE HAT 2250 73 75 60/ 16/ 17 1020.3 5/ 6 2/ 8 41 SE CHARLESTON 2250 70 76 50/ 16/ 17 1021.1 5/ 6 2/10 $$

USA.gov is the U.S. government's official web portal to all federal, state and local government web resources and services.